Temp
10 9 9 9 9 8 9 8 9 9 9 8 8 8 8 8 8 8 8 8 8 8 8 8 8 8 7 8 7 8 8 8 8 9 8 8 8 8 8 8 8 8 8
11 9 9 9 8 8 8 8 8 8 9 8 8 8 8 8 8 8 8 8 8 8 7 8 8 8 8 7 7 8 8 8 8 8 8 9 8 9 8 8 8 8 8
10 10 9 9 9 8 9 9 8 8 8 8 8 8 8 8 8 8 8 7 7 7 7 7 7 7 7 7 7 7 7 7 8 8 8 8 8 8 8 8 8 8 8
10 10 10 9 9 9 9 9 9 8 8 8 8 8 8 8 8 8 7 7 7 7 7 7 7 7 7 7 7 7 6 7 7 8 8 8 8 8 8 8 8 8 8
10 10 10 9 9 9 9 9 9 9 8 8 8 8 8 8 8 8 7 8 8 8 7 7 7 7 7 7 7 7 7 7 7 7 7 7 7 8 8 8 8 8 8
10 10 10 10 9 9 9 9 9 9 9 8 8 8 8 8 8 8 8 8 8 8 7 7 7 7 7 7 7 7 7 7 7 7 7 7 7 7 7 8 8 8 8
10 10 10 10 9 9 9 9 9 9 9 9 9 9 9 9 8 8 8 8 8 8 8 7 7 7 7 7 7 7 7 7 7 6 7 7 7 7 7 7 8 8 8
10 10 9 10 9 9 9 9 9 9 9 9 9 9 9 9 9 9 8 8 8 8 8 7 7 7 7 8 8 7 7 6 7 7 7 6 6 6 7 7 7 8 8
9 9 9 9 9 9 9 9 9 9 9 9 9 9 9 9 9 9 8 8 8 8 8 8 8 8 8 8 8 7 7 7 7 7 7 8 9 7 7 7 7 7 7
9 8 8 8 9 9 8 9 9 9 9 9 9 9 9 9 9 9 8 8 8 8 8 8 8 8 8 8 8 8 7 7 7 7 8 8 7 7 7 7 7 7 7
8 8 8 8 8 8 9 9 9 9 9 9 9 9 9 9 9 9 8 8 8 8 8 8 8 8 8 8 8 8 7 8 7 7 7 7 7 7 7 7 7 7 7
9 8 8 8 8 9 9 9 9 9 9 9 9 9 9 9 9 9 8 9 8 8 8 8 8 8 8 8 9 8 8 7 7 7 7 7 7 7 7 8 7 8 8
9 9 9 9 8 9 9 9 9 9 10 9 9 10 9 9 9 9 9 8 8 8 8 8 9 9 8 9 9 8 8 8 8 7 7 7 7 7 8 8 7 7 7
9 9 9 9 9 9 9 9 9 9 10 10 10 9 9 9 9 9 9 9 9 8 8 9 8 8 9 9 9 9 9 8 8 8 8 8 8 8 7 8 8 7 7
9 10 9 9 9 10 9 10 10 10 10 10 10 10 10 10 10 9 9 9 9 8 8 8 8 9 9 9 9 9 9 9 8 8 8 8 8 8 8 8 8 7 7
10 10 10 10 10 10 10 9 10 10 10 10 10 11 10 10 9 9 9 9 9 8 8 8 8 8 9 9 10 9 9 9 8 8 8 8 8 8 8 8 8 8 7
9 10 10 10 10 10 10 9 10 10 10 10 10 11 11 10 10 10 10 10 9 9 8 9 8 9 9 10 9 9 9 9 9 9 9 9 9 9 8 8 8 8 8
9 10 10 10 10 10 10 10 10 10 10 10 11 11 11 10 10 10 10 10 10 9 9 9 9 9 9 9 9 9 9 9 9 9 9 9 9 9 9 8 8 8 8
9 10 11 11 11 10 10 10 10 10 10 10 10 11 11 11 10 11 11 11 10 9 9 9 8 9 9 9 9 9 10 9 9 9 9 9 9 9 9 9 9 9 9
10 10 11 11 11 10 10 10 10 10 10 10 10 10 10 11 11 11 11 10 10 9 9 9 9 10 10 9 9 9 10 9 9 10 9 9 9 9 9 9 9 9 9
11 11 11 12 11 10 10 10 11 11 10 10 10 10 10 10 11 11 11 10 10 10 9 10 10 11 10 9 8 10 9 9 9 9 9 9 9 9 9 9 9 9 9
13 12 12 12 11 11 10 10 10 10 10 9 9 9 10 10 10 11 11 11 10 10 10 10 10 10 11 10 9 9 9 9 9 9 9 9 9 8 8 8 9 9 8
14 14 13 12 11 11 10 10 10 10 10 10 10 10 10 10 10 10 10 11 10 10 10 10 9 10 10 10 10 10 9 10 9 9 9 9 8 8 8 8 8 8 8
14 14 13 12 11 11 10 10 10 10 10 10 9 9 10 10 10 10 10 10 10 9 9 10 10 9 9 10 9 9 10 9 9 9 9 9 9 9 9 9 9 8 8
13 14 13 13 12 11 11 10 10 10 10 9 10 10 10 10 10 10 10 10 10 10 9 10 10 9 9 9 9 9 10 9 9 9 9 8 9 9 9 9 9 8 8
13 13 13 13 13 11 11 11 10 10 10 9 9 10 10 10 10 10 10 10 10 10 10 9 9 10 10 10 9 9 9 10 9 9 9 9 8 8 8 8 9 8 8
Height
3182 3183 3184 3184 3187 3189 3192 3193 3194 3196 3197 3199 3199 3201 3201 3203 3204 3204 3204 3205 3207 3207 3207 3207 3207 3208 3207 3208 3208 3209 3210 3211 3212 3212 3212 3213 3214 3215 3216 3217 3217 3218 3219
3184 3184 3186 3187 3188 3191 3193 3195 3196 3197 3199 3200 3201 3202 3203 3204 3206 3206 3206 3207 3208 3208 3208 3208 3208 3208 3209 3209 3211 3212 3213 3213 3214 3214 3216 3217 3217 3218 3218 3219 3220 3220 3221
3185 3186 3188 3189 3191 3192 3195 3197 3198 3198 3200 3200 3202 3203 3204 3206 3208 3208 3208 3208 3209 3209 3209 3208 3208 3208 3208 3210 3211 3212 3213 3214 3216 3217 3218 3219 3220 3220 3220 3221 3222 3222 3223
3185 3187 3190 3191 3193 3194 3196 3199 3199 3200 3201 3202 3203 3205 3206 3208 3208 3209 3209 3209 3209 3209 3210 3209 3209 3208 3208 3209 3210 3211 3212 3213 3216 3216 3218 3219 3220 3222 3222 3223 3224 3224 3226
3185 3188 3191 3192 3194 3195 3197 3199 3200 3201 3203 3204 3205 3206 3208 3209 3209 3210 3210 3210 3209 3209 3210 3209 3209 3209 3210 3209 3209 3211 3212 3211 3214 3216 3218 3219 3220 3221 3224 3224 3225 3226 3227
3185 3188 3191 3192 3194 3196 3198 3200 3201 3202 3204 3205 3205 3207 3208 3209 3210 3211 3211 3210 3210 3210 3211 3211 3209 3208 3208 3209 3210 3211 3211 3211 3213 3214 3217 3218 3219 3220 3223 3224 3226 3228 3229
3186 3189 3192 3193 3195 3197 3200 3201 3202 3203 3205 3206 3206 3208 3208 3210 3211 3211 3211 3211 3211 3211 3211 3211 3211 3211 3210 3210 3210 3210 3210 3211 3211 3213 3215 3218 3218 3220 3223 3225 3226 3228 3229
3187 3190 3192 3194 3196 3198 3200 3201 3202 3204 3206 3206 3206 3207 3208 3209 3211 3212 3212 3212 3212 3212 3212 3211 3211 3211 3211 3211 3210 3210 3209 3208 3209 3212 3214 3216 3216 3219 3222 3224 3226 3228 3229
3186 3190 3193 3194 3196 3199 3201 3202 3203 3205 3207 3206 3206 3208 3209 3210 3211 3213 3213 3212 3212 3212 3212 3211 3211 3211 3210 3209 3210 3210 3208 3206 3208 3212 3213 3214 3215 3218 3222 3224 3225 3228 3229
3186 3188 3191 3194 3196 3198 3200 3202 3204 3205 3207 3207 3207 3208 3209 3211 3212 3213 3213 3213 3212 3211 3211 3210 3211 3211 3211 3211 3211 3211 3210 3209 3209 3211 3214 3216 3217 3219 3221 3223 3224 3227 3228
3185 3187 3189 3192 3195 3198 3200 3202 3204 3206 3207 3208 3209 3209 3210 3212 3213 3214 3214 3213 3213 3213 3213 3211 3212 3211 3212 3212 3212 3211 3211 3211 3210 3210 3214 3216 3218 3219 3221 3222 3224 3225 3226
3185 3185 3187 3191 3195 3198 3200 3202 3204 3206 3207 3208 3209 3210 3211 3212 3214 3215 3215 3215 3214 3214 3214 3213 3213 3212 3211 3211 3212 3212 3212 3212 3212 3212 3213 3216 3218 3219 3221 3222 3223 3224 3225
3187 3187 3188 3191 3194 3198 3201 3202 3204 3206 3208 3209 3209 3211 3212 3213 3214 3215 3216 3216 3217 3217 3217 3214 3213 3212 3210 3211 3212 3212 3211 3213 3213 3213 3214 3216 3219 3220 3220 3222 3223 3223 3224
3188 3190 3191 3192 3194 3197 3199 3201 3203 3206 3207 3209 3210 3211 3212 3213 3215 3216 3217 3218 3218 3216 3217 3215 3214 3211 3210 3211 3212 3212 3213 3214 3214 3213 3215 3217 3218 3220 3221 3221 3223 3223 3223
3187 3190 3192 3194 3195 3197 3199 3200 3203 3205 3207 3208 3210 3211 3212 3213 3215 3217 3217 3218 3218 3217 3216 3214 3215 3212 3211 3212 3213 3215 3215 3216 3216 3215 3216 3218 3217 3218 3221 3222 3221 3221 3221
3187 3190 3193 3194 3196 3197 3199 3201 3203 3205 3206 3208 3210 3211 3212 3214 3215 3217 3218 3219 3219 3218 3218 3215 3215 3216 3213 3214 3215 3216 3217 3217 3216 3217 3218 3218 3218 3218 3219 3220 3222 3221 3220
3186 3189 3192 3194 3196 3198 3200 3201 3203 3205 3206 3207 3209 3211 3212 3214 3215 3216 3218 3219 3219 3219 3218 3216 3217 3216 3216 3217 3216 3217 3218 3218 3218 3218 3219 3219 3219 3219 3218 3219 3219 3219 3220
3185 3187 3190 3193 3196 3197 3199 3202 3203 3204 3205 3207 3209 3210 3211 3212 3214 3215 3217 3219 3219 3219 3219 3217 3217 3217 3218 3218 3218 3218 3218 3217 3217 3219 3220 3221 3220 3220 3218 3219 3219 3219 3220
3183 3185 3188 3190 3194 3196 3199 3201 3203 3205 3206 3207 3208 3210 3210 3211 3212 3214 3215 3217 3218 3218 3218 3219 3217 3218 3218 3218 3219 3219 3218 3219 3219 3219 3220 3221 3221 3220 3219 3218 3219 3220 3220
3180 3182 3185 3188 3191 3195 3197 3199 3201 3203 3205 3207 3207 3209 3210 3211 3211 3212 3215 3216 3217 3218 3218 3218 3219 3219 3219 3219 3219 3219 3219 3219 3219 3219 3220 3221 3222 3222 3220 3219 3220 3220 3219
3178 3179 3181 3184 3189 3191 3194 3196 3198 3201 3202 3205 3207 3208 3209 3211 3211 3212 3213 3215 3216 3217 3217 3218 3217 3217 3220 3219 3220 3219 3218 3217 3218 3220 3221 3222 3222 3222 3221 3222 3221 3221 3221
3178 3179 3180 3182 3185 3189 3192 3195 3197 3199 3201 3203 3205 3206 3207 3209 3210 3210 3212 3213 3214 3215 3216 3217 3216 3217 3219 3220 3220 3219 3218 3218 3217 3219 3220 3221 3221 3222 3222 3222 3222 3221 3221
3178 3179 3180 3181 3184 3186 3190 3192 3194 3195 3197 3199 3202 3204 3205 3207 3207 3209 3210 3211 3212 3213 3215 3216 3216 3216 3218 3218 3219 3219 3219 3219 3219 3219 3220 3221 3222 3222 3222 3222 3222 3221 3221
3177 3177 3178 3180 3182 3184 3187 3189 3191 3194 3196 3199 3200 3201 3203 3204 3204 3206 3207 3208 3210 3212 3212 3214 3215 3214 3215 3216 3216 3217 3217 3218 3219 3219 3220 3220 3221 3221 3221 3222 3221 3221 3220
3176 3176 3177 3178 3180 3181 3183 3185 3189 3191 3193 3195 3197 3198 3200 3201 3201 3202 3203 3205 3207 3209 3209 3210 3212 3212 3212 3213 3214 3214 3215 3216 3217 3218 3218 3219 3219 3220 3221 3221 3221 3220 3220
3175 3176 3176 3176 3177 3179 3180 3182 3184 3187 3189 3191 3194 3195 3196 3198 3198 3199 3200 3201 3204 3206 3207 3208 3209 3210 3211 3210 3211 3211 3213 3214 3214 3215 3215 3217 3217 3218 3219 3220 3220 3219 3220
Wind_Speed
17 18 17 14 14 15 14 14 14 13 12 12 12 11 12 11 10 10 9 7 5 4 4 4 5 6 7 8 10 12 13 15 15 16 17 17 17 18 18 18 19 18 17
13 18 17 16 14 14 14 13 13 12 11 11 11 9 9 8 8 7 5 3 2 1 1 2 3 4 4 5 5 8 10 11 11 13 13 13 14 15 15 15 15 15 15
15 17 17 16 15 15 14 13 12 12 11 11 9 8 7 7 5 5 4 2 2 2 1 1 3 4 3 2 2 4 6 7 9 10 11 11 11 12 12 13 13 12 12
14 15 15 16 15 14 13 11 11 11 10 10 9 8 7 6 5 4 3 3 3 3 3 3 3 4 3 2 6 7 10 9 9 11 11 12 11 10 11 10 10 10 10
16 15 15 15 14 13 12 10 9 9 9 9 9 7 7 5 4 3 3 3 5 6 6 5 3 2 1 3 6 6 5 8 10 12 12 12 11 11 10 11 9 7 8
16 16 15 13 14 13 12 11 9 8 8 9 8 7 6 5 4 4 5 7 9 8 7 4 3 3 3 5 5 4 6 9 10 14 16 17 13 14 12 11 11 9 8
16 16 15 13 12 12 11 10 9 9 8 9 9 8 7 5 5 6 7 7 6 6 5 4 3 3 2 1 3 3 3 7 12 15 16 19 17 15 16 15 13 12 11
13 14 15 16 13 11 9 9 9 9 9 10 10 9 8 6 6 6 7 5 4 4 3 3 3 3 1 2 1 3 3 6 11 13 12 14 20 23 18 14 12 12 12
16 15 16 17 15 8 7 9 9 9 9 11 11 11 9 8 8 5 4 3 2 2 3 3 3 4 3 3 3 3 6 7 7 10 7 5 11 23 20 15 17 16 13
17 18 17 16 14 7 10 11 9 8 9 10 11 11 10 9 8 6 3 2 4 5 5 3 2 1 1 1 3 4 5 6 8 9 8 9 10 11 12 13 14 13 12
14 19 17 18 14 9 11 10 9 8 9 9 11 11 11 10 8 6 4 8 10 7 5 3 1 1 3 2 1 5 7 10 12 11 8 7 8 9 12 13 12 12 11
8 13 20 19 14 13 12 10 8 8 8 9 11 12 12 11 9 6 7 11 9 6 4 5 3 0 2 2 3 4 11 9 10 11 10 7 7 10 10 11 12 12 11
11 14 19 19 17 14 11 9 9 8 8 9 11 12 11 10 9 7 9 11 8 6 5 6 6 7 6 4 5 6 11 11 11 11 9 8 8 9 9 9 9 11 13
11 11 12 14 14 12 11 10 11 10 9 9 10 11 10 10 8 9 9 7 5 8 9 9 8 6 9 8 10 11 9 8 9 11 10 10 9 8 8 8 7 7 7
10 11 12 12 11 10 10 9 11 11 10 9 11 11 12 10 8 8 10 7 7 6 10 7 13 11 7 8 9 9 9 8 8 8 8 8 9 9 7 6 6 6 4
10 13 12 11 9 9 8 8 10 12 11 10 9 11 11 11 11 10 8 7 6 5 5 7 10 15 11 9 7 7 8 8 7 7 7 8 8 8 7 6 5 4 4
4 13 14 12 10 10 8 8 9 11 12 11 10 11 12 12 12 13 9 7 10 6 5 5 9 16 14 15 12 7 7 6 8 9 7 7 6 7 6 5 5 4 4
8 13 18 19 15 12 10 8 10 9 11 11 11 11 13 14 17 16 11 9 7 6 5 5 6 7 10 9 8 10 3 4 9 8 7 5 3 2 6 5 5 4 2
7 12 20 21 19 17 15 12 10 10 10 10 10 10 13 17 16 15 11 8 5 6 4 8 4 4 6 9 6 7 4 5 5 8 9 8 6 5 6 6 5 5 4
9 12 18 21 20 19 19 16 13 12 12 10 11 10 11 16 16 15 12 9 7 6 5 7 4 2 4 6 4 4 8 3 5 7 11 9 6 6 6 5 4 3 2
8 12 19 21 22 20 23 20 16 14 11 10 12 12 11 14 15 15 13 11 11 9 7 6 4 1 4 4 5 3 3 6 10 9 8 6 5 7 4 6 5 5 5
5 7 15 19 22 19 20 20 18 17 15 14 13 13 14 16 15 14 14 14 13 7 5 8 7 5 1 4 1 5 6 9 9 9 7 7 3 5 6 8 8 7 6
4 7 8 16 20 19 19 20 20 23 21 19 15 13 13 16 17 16 14 14 13 12 10 11 9 7 5 4 3 1 5 5 9 8 7 7 6 5 5 6 6 6 5
3 3 2 12 17 20 20 23 22 19 18 14 15 15 17 17 18 18 17 17 15 12 9 11 13 11 12 8 5 5 7 5 7 9 11 7 4 4 7 4 1 3 2
5 3 2 9 15 17 20 22 21 19 16 16 17 18 17 17 18 19 19 19 18 16 13 9 7 13 10 13 11 9 8 8 8 11 10 10 6 6 6 5 2 2 2
13 9 6 7 13 16 17 20 22 20 19 20 19 18 18 17 20 20 21 20 18 18 16 13 11 11 14 15 14 12 10 8 6 15 15 12 10 11 8 6 4 7 4
Wind_Direction
161 157 153 159 160 154 154 152 147 144 143 141 136 133 127 125 116 107 103 101 111 116 118 127 125 122 135 129 127 124 126 122 123 120 119 119 119 121 116 116 113 112 110
166 154 157 160 167 160 162 156 156 153 148 145 142 144 132 124 116 112 110 125 134 324 17 105 162 163 146 146 137 134 125 131 132 127 126 125 126 126 124 120 117 116 113
165 159 160 162 166 164 165 160 164 159 154 153 146 151 143 139 138 135 141 169 182 156 99 83 126 163 169 144 167 159 148 145 147 147 143 137 140 140 135 134 131 125 121
167 163 161 164 164 163 162 161 164 159 160 158 152 155 156 149 150 146 161 199 217 194 183 151 144 163 176 244 183 183 184 179 179 167 169 159 161 159 154 153 146 142 140
165 166 165 166 164 162 162 164 168 162 162 161 152 158 152 145 150 158 154 148 125 121 131 141 134 132 66 102 159 162 167 195 188 189 181 175 177 176 187 172 168 170 162
167 171 167 170 166 162 156 160 169 167 168 163 159 158 148 152 160 146 135 127 117 112 113 116 118 121 95 88 101 178 216 219 206 202 199 197 200 190 201 202 189 193 191
175 174 167 173 170 167 161 160 167 165 163 160 156 149 139 148 143 137 131 123 112 111 109 102 115 125 143 123 128 147 214 229 218 216 213 214 217 206 202 207 203 203 202
182 182 175 174 164 157 162 161 163 164 162 158 148 140 137 135 133 132 123 112 101 93 90 106 141 147 149 97 96 138 212 227 223 215 227 237 234 218 196 195 205 215 209
180 195 188 183 195 182 182 170 165 166 161 159 147 140 138 137 134 129 120 113 117 107 92 89 116 140 155 134 108 118 154 170 168 195 205 208 177 183 199 216 233 233 232
193 195 192 187 190 185 185 172 167 167 161 162 147 143 141 140 138 140 126 112 116 124 120 110 93 22 324 11 86 110 145 146 159 164 157 167 165 189 210 220 216 226 231
190 195 192 187 191 179 175 172 166 175 160 162 148 148 143 140 141 141 124 120 125 117 94 99 112 334 334 306 119 126 146 153 155 158 165 173 189 200 206 215 219 231 232
161 188 179 187 192 179 183 173 179 181 163 161 156 155 148 145 147 146 140 127 110 111 85 38 20 245 25 331 186 186 134 155 147 146 156 170 199 208 213 218 219 219 219
145 143 161 171 173 181 189 190 187 181 168 163 170 163 157 155 154 153 143 128 116 87 42 8 358 296 313 247 153 174 180 165 161 166 174 185 184 178 184 204 211 218 218
182 160 159 167 175 185 191 188 185 178 170 169 175 171 167 165 158 162 154 130 106 89 50 51 29 88 97 166 195 192 161 162 155 149 158 164 167 176 180 179 191 192 208
193 195 179 180 188 191 193 187 193 185 173 174 177 178 178 168 165 175 173 148 128 56 38 51 63 107 82 146 197 181 184 179 156 147 156 163 161 158 164 170 174 188 200
190 189 200 190 196 209 197 186 197 196 184 177 190 188 196 179 176 186 171 152 118 125 117 28 27 75 96 80 113 128 167 174 159 157 160 170 166 165 170 182 188 184 189
191 208 214 207 210 208 207 204 216 209 197 188 191 191 198 190 185 194 196 162 141 103 87 37 41 60 80 87 98 71 128 151 150 149 153 153 154 159 152 170 178 180 195
228 217 218 221 221 221 214 213 222 216 216 207 197 193 194 193 193 200 199 186 161 136 111 98 62 48 64 93 97 88 106 159 147 162 142 126 113 172 139 126 121 136 171
249 230 223 223 222 221 220 216 217 212 220 212 203 195 199 203 206 213 202 199 161 166 169 126 78 56 39 71 79 99 89 121 174 157 158 127 98 110 137 128 122 121 119
247 239 227 226 225 224 223 216 216 221 216 221 206 203 203 214 215 220 213 203 191 188 192 168 173 77 74 83 77 87 106 110 136 130 154 143 118 100 97 99 118 83 104
245 237 227 227 221 224 225 220 216 218 219 220 224 213 212 223 225 226 221 211 213 201 226 250 262 66 129 101 70 28 116 93 115 146 151 147 117 62 101 84 89 79 52
349 251 231 224 219 220 227 228 224 224 218 216 213 222 232 227 226 225 221 225 213 227 218 236 287 276 252 171 212 66 96 102 124 137 130 167 156 94 97 115 75 92 70
354 359 243 223 223 219 221 217 226 231 226 225 222 219 230 226 227 222 218 221 223 232 246 223 225 258 250 248 168 176 178 132 156 157 174 183 183 122 99 157 99 93 78
8 20 277 220 215 216 217 222 226 233 232 237 241 229 219 228 223 227 220 226 226 221 205 217 224 246 246 256 260 248 222 197 166 161 177 175 169 157 169 176 146 131 82
236 307 277 235 222 214 217 221 225 228 220 219 224 222 220 224 225 226 225 227 228 217 216 223 229 215 239 237 243 238 225 210 204 197 197 199 216 248 262 291 266 357 251
241 249 274 278 238 227 224 224 224 226 223 226 228 228 222 224 225 229 236 232 228 219 217 223 229 224 231 231 231 233 214 213 217 219 228 224 232 248 249 260 257 294 318